Location: Recife
(8.0585°S, 34.8848°W)
Time: 20:12:24
(UTC-03:00)

A-11 Canister half - Pass Details

Date: 16 April 2026
Orbit: 1515 x 1684 km, 47.2° (Epoch: 16 May)

Event Time Altitude Azimuth Distance (km) Brightness Sun altitude
Rises 12:14:43 0° 347° (NNW) 4,861 11.9 67.1°
Reaches altitude 10° 12:18:38 10° 360° (N) 3,898 11.6 66.5°
Maximum altitude 12:26:25 26° 52° (NE) 2,890 10.8 65.2°
Drops below altitude 10° 12:34:14 10° 103° (ESE) 3,947 11.0 63.8°
Sets 12:38:10 0° 115° (ESE) 4,934 11.4 63.1°
